[[{"header":{"parameterUnit":"m.s-1","parameterCategory":1,"la1":30.2991,"la2":30.254,"lo1":-89.0895,"lo2":-89.0444,"dy":0.0017,"dx":0.0017,"nx":28,"ny":28,"refTime":"2024-04-03T03:00:00:Z","depth":0,"parameterNumber":2,"parameterNumberName":"U-component_of_WINDS"},"data":[0,0,0,0,0,0,0,0,0,0,0,0,0,0,0,0,0,0,0,0,0,0,0,0,0,0,0,0,0,0,0,0,0,0,0,0,0,0,0,0,0,0,0,0,0,0,0,0,0,0,0,0,0,0,0,0,0,0,5.659,5.6592,0,5.6792,5.6794,5.6796,5.6737,5.6732,5.6728,5.6724,5.6938,5.6948,5.6957,0,0,0,0,0,0,0,0,0,0,0,0,0,5.6161,5.6169,5.659,5.6592,5.6595,5.6791,5.6794,5.6797,5.6737,5.6732,5.6727,5.6722,5.6935,5.6946,5.6958,0,0,0,0,0,0,0,0,0,0,0,0,0,5.6353,5.6171,5.659,5.6589,5.6591,5.6791,5.6794,5.6798,5.6738,5.6732,5.6726,5.672,5.6931,5.6945,5.6959,5.7175,0,0,5.7004,5.701,0,0,0,0,0,0,0,0,5.6342,5.6369,5.6586,5.6589,5.6592,5.6732,5.6721,5.6924,5.674,5.6683,5.6724,5.6717,5.6875,5.6894,5.6946,5.7185,5.7194,5.7005,5.7014,5.702,5.7024,0,0,0,0,0,0,0,5.6329,5.636,5.667,5.659,5.6593,5.6581,5.6601,5.6759,5.6812,5.6687,5.6683,5.6707,5.6876,5.6932,5.695,5.7197,5.7004,5.7017,5.7026,5.7032,5.7624,5.7631,0,0,0,0,0,0,5.6313,5.6349,5.6664,5.6676,5.6449,5.6593,5.6616,5.6694,5.681,5.6822,5.6713,5.6704,5.691,5.6934,5.6958,5.7218,5.702,5.7033,5.7042,5.7617,5.7626,5.7633,0,0,0,0,0,0,5.6304,5.6342,5.6655,5.6512,5.6551,5.6608,5.6695,5.6701,5.6757,5.6829,5.6839,5.676,5.6906,5.6937,5.7121,5.7224,5.704,5.7053,5.7609,5.762,5.7629,5.774,0,0,0,0,0,0,5.6292,5.6339,5.6419,5.6514,5.6559,5.6814,5.6701,5.6709,5.6781,5.6772,5.6877,5.6888,5.6904,5.71,5.7135,5.7241,5.7064,5.76,5.7613,5.7626,5.7727,5.7753,5.7775,0,0,0,0,0,5.6277,5.6444,5.6424,5.6462,5.666,5.6819,5.6845,5.6858,5.679,5.6873,5.6919,5.6885,5.7207,5.7119,5.7159,5.727,5.7593,5.761,5.7625,5.7716,5.7748,5.7774,0,0,0,0,0,0,5.6363,5.6456,5.6435,5.6637,5.6721,5.6809,5.6914,5.6891,5.6997,5.6984,5.6998,5.7022,5.721,5.7258,5.7159,5.7485,5.739,5.7415,5.7447,5.7477,5.75,5.7485,5.7076,0,0,0,0,0,5.6405,5.6524,5.66,5.6772,5.6814,5.6857,5.6927,5.6929,5.7017,5.7053,5.7112,5.7201,5.7322,5.7402,5.7518,5.7734,5.7756,5.783,5.7854,5.7873,5.7895,5.8013,5.8047,5.7685,5.7685,5.7685,0,0,5.6494,5.656,5.6635,5.6791,5.6855,5.6981,5.6887,5.7024,5.7117,5.7074,5.725,5.7298,5.7398,5.7598,5.769,5.7645,5.7999,5.7893,5.7908,5.7919,5.8033,5.8067,5.8097,5.7696,5.7694,5.7693,0,0,5.6721,5.6782,5.6931,5.6997,5.7096,5.7123,5.7159,5.7251,5.728,5.7456,5.7427,5.754,5.7748,5.782,5.7885,5.8138,5.8111,5.8176,5.8301,5.8416,5.8445,5.847,5.8561,5.8594,5.8197,5.8197,5.8197,0,5.682,5.7005,5.7012,5.7151,5.7221,5.7185,5.7337,5.7402,5.7535,5.7585,5.7532,5.7792,5.7857,5.8074,5.8136,5.8189,5.8232,5.8164,5.8439,5.8465,5.8489,5.8576,5.861,5.8204,5.8203,5.8203,5.8202,0,5.7122,5.7251,5.7361,5.7486,5.7569,5.7714,5.7745,5.7828,5.7823,5.7857,5.8038,5.8114,5.8245,5.8296,5.8294,5.8514,5.8483,5.8435,5.834,5.853,5.8613,5.8646,5.8215,5.8212,5.821,5.8208,0,0,5.741,5.7536,5.7576,5.7633,5.7739,5.784,5.7984,5.8109,5.818,5.8273,5.8396,5.8572,5.8528,5.8601,5.8607,5.8708,5.8905,5.8647,5.865,5.8693,5.9153,5.9189,5.9227,5.8887,5.8893,5.8898,5.9145,0,5.7646,5.7896,5.7907,5.8136,5.8256,5.8224,5.835,5.843,5.8465,5.8574,5.8613,5.8739,5.867,5.8714,5.8813,5.886,5.8998,5.8842,5.9003,5.9009,5.8979,5.927,5.9309,5.9538,5.9177,5.9182,5.9186,0,5.7954,5.8054,5.8295,5.8383,5.8433,5.8546,5.8662,5.8765,5.8856,5.8874,5.8955,5.8946,5.9096,5.8996,5.9204,5.9098,5.9164,5.9198,5.9207,5.9223,5.911,5.9295,5.9611,5.9646,5.9237,5.9233,5.9229,0,5.8141,5.8335,5.8504,5.8553,5.866,5.8741,5.8789,5.8873,5.8948,5.905,5.9098,5.9217,5.9283,5.9376,5.9401,5.9325,5.9609,5.951,5.963,5.963,5.9692,5.9688,6.0024,5.9734,5.9733,5.9733,5.9732,0,5.8403,5.8552,5.8589,5.8693,5.886,5.8871,5.9036,5.908,5.9155,5.9268,5.9248,5.9356,5.9381,5.9495,5.9515,5.9684,5.9714,5.9735,5.9739,5.9737,5.9735,5.9782,5.9767,5.9742,5.974,5.9738,5.9737,0,5.864,5.867,5.8852,5.8938,5.8963,5.9082,5.9156,5.9258,5.929,5.9434,5.9469,5.9521,5.9653,5.9686,5.9845,5.9858,6.0059,6.0047,6.0027,6.0027,6.0146,6.0134,6.0524,6.0576,6.0251,6.0255,6.0257,0,5.8806,5.8919,5.9016,5.9089,5.9141,5.926,5.9335,5.9351,5.9431,5.9542,5.9631,5.976,5.9864,6.0078,6.0131,6.0253,6.0244,6.0372,6.0263,6.0257,6.0247,6.024,6.0252,6.0394,6.0397,6.04,6.0402,0,5.9098,5.9107,5.9214,5.9328,5.9417,5.9508,5.9595,5.9657,5.9686,5.9777,5.991,5.9991,6.0151,6.0281,6.0403,6.0456,6.0435,6.0436,6.047,6.047,6.0454,6.0465,6.0085,6.0427,6.0425,6.0423,6.0422,6.0421,5.9305,5.9404,5.9487,5.9608,5.9674,5.9756,5.9855,5.9898,6.0009,6.0139,6.0143,6.0289,6.0377,6.0538,6.0598,6.0714,6.0675,6.0725,6.0738,6.075,6.076,6.0435,6.0736,6.0736,6.0735,6.0735,6.0734,0,5.9596,5.9647,5.9758,5.9879,5.9975,5.9943,6.0038,6.0121,6.0248,6.0331,6.0433,6.0587,6.0713,6.0775,6.09,6.0981,6.0974,6.1013,6.1008,6.102,6.0788,6.0746,6.1016,6.1016,6.1016,6.1016,6.1016,6.1016,5.9758,5.9925,5.9944,6.0143,6.0194,6.0335,6.0392,6.0467,6.0533,6.0705,6.0808,6.0847,6.0922,6.1052,6.1166,6.1182,6.1229,6.1273,6.1284,6.1065,6.1037,6.1009,6.097,6.1283,6.1283,6.1507,6.1509,6.151]},{"header":{"parameterUnit":"m.s-1","parameterCategory":1,"la1":30.2991,"la2":30.254,"lo1":-89.0895,"lo2":-89.0444,"dy":0.0017,"dx":0.0017,"nx":28,"ny":28,"refTime":"2024-04-03T03:00:00:Z","depth":0,"parameterNumber":3,"parameterNumberName":"V-component_of_WINDS"},"data":[0,0,0,0,0,0,0,0,0,0,0,0,0,0,0,0,0,0,0,0,0,0,0,0,0,0,0,0,0,0,0,0,0,0,0,0,0,0,0,0,0,0,0,0,0,0,0,0,0,0,0,0,0,0,0,0,0,0,0.716,0.7159,0,0.7153,0.7153,0.7153,0.7127,0.7127,0.7126,0.7126,0.7119,0.712,0.712,0,0,0,0,0,0,0,0,0,0,0,0,0,0.7149,0.715,0.716,0.7159,0.7159,0.7153,0.7153,0.7153,0.7127,0.7127,0.7126,0.7125,0.7119,0.712,0.712,0,0,0,0,0,0,0,0,0,0,0,0,0,0.7149,0.715,0.716,0.7146,0.7145,0.7153,0.7153,0.7153,0.7128,0.7127,0.7126,0.7125,0.7119,0.712,0.712,0.7142,0,0,0.7122,0.7122,0,0,0,0,0,0,0,0,0.7149,0.715,0.7148,0.7147,0.7145,0.714,0.7147,0.7149,0.7128,0.7134,0.7126,0.7125,0.7127,0.7127,0.7128,0.7142,0.7141,0.7122,0.7123,0.7123,0.7123,0,0,0,0,0,0,0,0.7149,0.715,0.7157,0.7148,0.7146,0.714,0.7139,0.7148,0.7136,0.7133,0.7132,0.7131,0.7126,0.7127,0.7127,0.7141,0.7122,0.7123,0.7123,0.7123,0.7172,0.7173,0,0,0,0,0,0,0.7151,0.715,0.7157,0.7157,0.7145,0.7141,0.714,0.7143,0.7136,0.7134,0.7132,0.713,0.7127,0.7127,0.7127,0.7151,0.7123,0.7123,0.7124,0.7171,0.7172,0.7173,0,0,0,0,0,0,0.7151,0.7152,0.7158,0.7153,0.7153,0.7142,0.7146,0.7143,0.7144,0.7134,0.7132,0.7135,0.7126,0.7126,0.7138,0.7151,0.7124,0.7124,0.717,0.7171,0.7172,0.72,0,0,0,0,0,0,0.7151,0.7152,0.7161,0.7153,0.7154,0.7169,0.7146,0.7144,0.7145,0.7143,0.7137,0.7135,0.7125,0.7137,0.7139,0.7151,0.7125,0.7168,0.717,0.7172,0.7198,0.7202,0.7206,0,0,0,0,0,0.7151,0.7169,0.7161,0.7162,0.7163,0.717,0.717,0.7158,0.7146,0.7154,0.7148,0.7135,0.7149,0.7139,0.714,0.7153,0.7168,0.717,0.7172,0.7196,0.7201,0.7206,0,0,0,0,0,0,0.7178,0.7168,0.7159,0.7175,0.7173,0.7165,0.7175,0.7164,0.7166,0.7163,0.7149,0.7148,0.7162,0.7158,0.7147,0.7173,0.7156,0.7159,0.7174,0.7179,0.7183,0.7183,0.7125,0,0,0,0,0,0.7186,0.7192,0.7182,0.7197,0.7197,0.7186,0.7189,0.718,0.7177,0.7177,0.7171,0.7169,0.7173,0.7176,0.7179,0.7198,0.7196,0.7207,0.7211,0.7214,0.7216,0.7225,0.7229,0.718,0.718,0.718,0,0,0.7202,0.7197,0.7202,0.7203,0.72,0.7207,0.7186,0.7193,0.7198,0.7178,0.7188,0.7184,0.7181,0.7196,0.7203,0.7194,0.7229,0.7217,0.7219,0.722,0.7227,0.7232,0.7236,0.7181,0.7181,0.7181,0,0,0.7235,0.7232,0.7244,0.7242,0.7238,0.7231,0.7234,0.7227,0.7224,0.7234,0.7219,0.7224,0.7231,0.723,0.723,0.7262,0.725,0.7263,0.7283,0.7292,0.7296,0.7299,0.731,0.7314,0.7265,0.7265,0.7265,0,0.7255,0.7264,0.7251,0.726,0.726,0.7242,0.7254,0.7253,0.7251,0.7252,0.7242,0.725,0.7247,0.7261,0.7269,0.727,0.7272,0.7263,0.7296,0.73,0.7303,0.7313,0.7317,0.7267,0.7267,0.7267,0.7266,0,0.7289,0.7295,0.7305,0.7303,0.7305,0.7315,0.7304,0.7308,0.7299,0.7292,0.7303,0.7299,0.73,0.7303,0.7295,0.7316,0.731,0.7299,0.7282,0.7309,0.7318,0.7322,0.7269,0.7269,0.7268,0.7268,0,0,0.7338,0.7329,0.7333,0.7331,0.7326,0.7331,0.734,0.7341,0.7344,0.7343,0.735,0.7357,0.7346,0.7346,0.7337,0.7345,0.737,0.7333,0.7332,0.7339,0.7392,0.74,0.7405,0.7362,0.7363,0.7363,0.7392,0,0.7368,0.7383,0.7372,0.7389,0.7394,0.7377,0.7385,0.7383,0.7377,0.7381,0.7375,0.7379,0.7365,0.7365,0.7372,0.7365,0.738,0.7363,0.7368,0.7368,0.7369,0.741,0.7418,0.7445,0.7396,0.7396,0.7397,0,0.7406,0.7406,0.7423,0.7417,0.7418,0.7426,0.7426,0.743,0.7427,0.7422,0.7422,0.7411,0.7419,0.7403,0.7414,0.7403,0.7404,0.7402,0.7402,0.7402,0.7384,0.7409,0.7454,0.7458,0.7402,0.7402,0.7401,0,0.7439,0.7444,0.7455,0.7454,0.7447,0.7452,0.7449,0.7445,0.7447,0.7447,0.7447,0.7449,0.7449,0.7451,0.744,0.743,0.7453,0.7436,0.7449,0.7449,0.7454,0.7453,0.7498,0.7456,0.7456,0.7456,0.7456,0,0.7473,0.7484,0.7469,0.7476,0.7487,0.7475,0.7487,0.7482,0.7479,0.7484,0.747,0.7475,0.7461,0.7465,0.7457,0.7467,0.7468,0.7464,0.7462,0.7465,0.7465,0.7465,0.7462,0.7457,0.7457,0.7456,0.7456,0,0.7512,0.7502,0.7513,0.7505,0.7503,0.7512,0.7505,0.7511,0.7504,0.7511,0.7512,0.7501,0.7505,0.7495,0.7498,0.7492,0.7506,0.7501,0.7507,0.7505,0.7519,0.7517,0.7564,0.757,0.7525,0.7525,0.7526,0,0.7534,0.7542,0.7535,0.7537,0.7535,0.7539,0.754,0.7528,0.753,0.7527,0.7533,0.7536,0.7537,0.7544,0.7536,0.7538,0.7532,0.7549,0.7532,0.7535,0.7532,0.7531,0.7531,0.7552,0.7552,0.7553,0.7553,0,0.7574,0.7569,0.7571,0.7572,0.7574,0.7574,0.7572,0.7575,0.7562,0.7565,0.7568,0.7569,0.7572,0.7574,0.7574,0.7571,0.756,0.7559,0.7561,0.7564,0.7567,0.7565,0.7516,0.7557,0.7557,0.7557,0.7556,0.7556,0.7605,0.7611,0.7606,0.7609,0.7607,0.7606,0.7611,0.7605,0.7608,0.7608,0.7601,0.7606,0.7602,0.7601,0.7599,0.7603,0.7595,0.76,0.7601,0.7602,0.7604,0.7567,0.7603,0.7603,0.7603,0.7603,0.7603,0,0.7643,0.764,0.7643,0.7641,0.7643,0.7633,0.7631,0.7633,0.7638,0.7636,0.7637,0.7641,0.7643,0.7636,0.7637,0.7642,0.7637,0.7642,0.7641,0.7641,0.7611,0.7608,0.7646,0.7646,0.7646,0.7646,0.7646,0.7646,0.7664,0.7673,0.7667,0.7675,0.7672,0.7676,0.7676,0.7675,0.7673,0.7678,0.768,0.7675,0.7671,0.7672,0.7673,0.7671,0.7672,0.7679,0.7675,0.7647,0.7643,0.7639,0.7636,0.768,0.768,0.7705,0.7705,0.7705]}]]